Regional Weather Roundup
Issued by NWS

Home | Current Version | Previous Version | Text Only | Print | Product List | Glossary On
Versions: 1 2 3 4 5 6 7 8 9 10 11 12 13 14 15 16 17 18 19 20 21 22 23 24 25 26 27 28 29 30 31 32 33 34 35 36 37 38 39 40 41 42 43 44 45 46 47 48 49 50
000
ASUS45 KREV 230610
RWRNV
NEVADA REGIONAL WEATHER ROUNDUP
NATIONAL WEATHER SERVICE RENO NV
1100 PM PDT FRI AUG 22 2014

NOTE: "FAIR" INDICATES FEW OR NO CLOUDS BELOW 12,000 FEET WITH NO
SIGNIFICANT WEATHER AND/OR OBSTRUCTIONS TO VISIBILITY.

NVZ001-003-004-230700-
WESTERN NEVADA

CITY           SKY/WX    TMP DP  RH WIND       PRES   REMARKS
RENO           CLEAR     69  37  30 VRB3      30.05R
6HR MIN TEMP:  69; 6HR MAX TEMP:  84;

CARSON CITY    FAIR      66  39  37 CALM      30.08R
MINDEN         FAIR      63  39  42 CALM      30.09
SLIDE MTN        N/A     43  30  61 W25         N/A
PYRAMID LAKE     N/A     75 N/A N/A W3          N/A
FALLON         PTCLDY    70  35  27 W7        29.98R
6HR MIN TEMP:  70; 6HR MAX TEMP:  89;

LOVELOCK       PTCLDY    73  25  16 N16       29.98R
6HR MIN TEMP:  73; 6HR MAX TEMP:  86; 6HR PCP: TRACE;

HAWTHORNE      CLEAR     75  34  22 NE8       29.99R
$$

NVZ002-CAZ072-073-230700-
NORTHERN AND CENTRAL SIERRA

CITY           SKY/WX    TMP DP  RH WIND       PRES   REMARKS
S. LAKE TAHOE  CLEAR     54  39  57 CALM      30.17R
6HR MIN TEMP:  54; 6HR MAX TEMP:  73;

TRUCKEE        CLEAR     45  36  70 CALM      30.17S
SQUAW VLY 8000   N/A     50  34  53 VRB15       N/A
SUSANVILLE     CLEAR     66  41  39 NW7       30.05R
BLUE CANYON    CLEAR     58  40  51 E5        30.13S
MAMMOTH LAKES  FAIR      57  37  47 W13G18    30.19R
BRIDGEPORT     FAIR      54  31  41 CALM      30.17R
$$

NVZ030-031-036-230700-
NORTHERN NEVADA

CITY           SKY/WX    TMP DP  RH WIND       PRES   REMARKS
ELKO           MOCLDY    56  36  47 CALM      30.02S
6HR MIN TEMP:  56; 6HR MAX TEMP:  76;

WINNEMUCCA     MOCLDY    61  38  42 NE3       30.02R
6HR MIN TEMP:  59; 6HR MAX TEMP:  79;

WENDOVER       MOCLDY    63  54  72 NE6       30.01R
$$

NVZ035-037-230700-
CENTRAL NEVADA

CITY           SKY/WX    TMP DP  RH WIND       PRES   REMARKS
ELY            MOCLDY    56  50  80 SW9G17    30.06R
6HR MIN TEMP:  55; 6HR MAX TEMP:  61; 6HR PCP:  0.10;

EUREKA           N/A     58  39  49 NE8       30.06R
6HR MIN TEMP:  55; 6HR MAX TEMP:  79;

$$

NVZ013-014-230700-
SOUTH CENTRAL NEVADA

CITY           SKY/WX    TMP DP  RH WIND       PRES   REMARKS
TONOPAH        CLEAR     72  26  18 N20G26    30.02R
6HR MIN TEMP:  72; 6HR MAX TEMP:  84;

$$

NVZ017-020-022-230700-
SOUTHERN NEVADA

CITY           SKY/WX    TMP DP  RH WIND       PRES   REMARKS
LAS VEGAS      CLEAR     83  49  30 S22G30    29.80S
6HR MIN TEMP:  83; 6HR MAX TEMP:  95;

N. LAS VEGAS   CLEAR     85  49  28 S15G25    29.81S
6HR MIN TEMP:  85; 6HR MAX TEMP:  94;

NELLIS AFB     CLEAR     86  51  30 S21       29.81R
6HR MIN TEMP:  86; 6HR MAX TEMP:  94;

HENDERSON      CLEAR     82  50  32 S16       29.87S
6HR MIN TEMP:  82; 6HR MAX TEMP:  94;

MERCURY        CLEAR     81  45  28 SW29G41   29.85F
6HR MIN TEMP:  81; 6HR MAX TEMP:  91;

$$



USA.gov is the U.S. government's official web portal to all federal, state and local government web resources and services.